User: anonymous   Login
Location: Unspecified
(0.0000°N, 0.0000°E)
Time: 02:59:22
(UTC+00:00)
Language:

GONETS M 13 (M23) - Orbit

View from above orbital plane
View from above orbital plane
View from above satellite
View from above satellite

Ground track
Ground track

The orbit data is extracted from the following two-line orbital elements,

1 40554U 15020C   17232.80553705  .00000010  00000-0  00000+0 0  9994
2 40554  82.4818 238.5990 0013191 151.4165 208.7639 12.42893129108471
Epoch (UTC): 20 August 2017 19:19:58
Eccentricity: 0.0013191
inclination: 82.4818°
perigee height: 1484 km
apogee height: 1505 km
right ascension of ascending node: 238.5990°
argument of perigee: 151.4165°
revolutions per day: 12.42893129
mean anomaly at epoch: 208.7639°
orbit number at epoch: 10847

The dashed part of the orbit path shows where the satellite is in the earth's shadow,  

DLR